[[{"header":{"parameterUnit":"m.s-1","parameterCategory":1,"la1":30.2991,"la2":30.254,"lo1":-89.0895,"lo2":-89.0444,"dy":0.0017,"dx":0.0017,"nx":28,"ny":28,"refTime":"2024-07-30T21:00:00:Z","depth":0,"parameterNumber":2,"parameterNumberName":"U-component_of_WINDS"},"data":[0,0,0,0,0,0,0,0,0,0,0,0,0,0,0,0,0,0,0,0,0,0,0,0,0,0,0,0,0,0,0,0,0,0,0,0,0,0,0,0,0,0,0,0,0,0,0,0,0,0,0,0,0,0,0,0,0,0,1.2145,1.2145,0,1.2186,1.2186,1.2187,1.2171,1.217,1.2169,1.2168,1.2209,1.2211,1.2213,0,0,0,0,0,0,0,0,0,0,0,0,0,1.2052,1.2054,1.2145,1.2145,1.2146,1.2186,1.2186,1.2187,1.2171,1.217,1.2168,1.2167,1.2208,1.2211,1.2213,0,0,0,0,0,0,0,0,0,0,0,0,0,1.2093,1.2055,1.2145,1.2143,1.2143,1.2185,1.2186,1.2187,1.2171,1.217,1.2168,1.2167,1.2208,1.221,1.2213,1.226,0,0,1.2223,1.2224,0,0,0,0,0,0,0,0,1.209,1.2096,1.2143,1.2143,1.2143,1.2172,1.2169,1.2211,1.2171,1.216,1.2168,1.2166,1.2198,1.2201,1.2212,1.2262,1.2264,1.2223,1.2225,1.2226,1.2227,0,0,0,0,0,0,0,1.2088,1.2094,1.2161,1.2143,1.2144,1.2139,1.2144,1.2177,1.2186,1.2161,1.216,1.2165,1.2198,1.2209,1.2213,1.2265,1.2223,1.2225,1.2227,1.2228,1.2354,1.2355,0,0,0,0,0,0,1.2085,1.2092,1.216,1.2162,1.2113,1.2142,1.2147,1.2164,1.2186,1.2188,1.2166,1.2164,1.2205,1.221,1.2214,1.2269,1.2226,1.2229,1.223,1.2352,1.2354,1.2356,0,0,0,0,0,0,1.2083,1.2091,1.2158,1.2127,1.2135,1.2145,1.2165,1.2165,1.2177,1.219,1.2192,1.2177,1.2204,1.221,1.2249,1.227,1.223,1.2233,1.235,1.2353,1.2355,1.238,0,0,0,0,0,0,1.208,1.209,1.2109,1.2127,1.2137,1.2192,1.2166,1.2167,1.2182,1.218,1.22,1.2202,1.2203,1.2244,1.2252,1.2274,1.2235,1.2348,1.2351,1.2354,1.2377,1.2383,1.2388,0,0,0,0,0,1.2077,1.2114,1.211,1.2118,1.216,1.2193,1.2199,1.22,1.2184,1.2202,1.221,1.2201,1.2267,1.2248,1.2256,1.228,1.2347,1.235,1.2354,1.2375,1.2382,1.2388,0,0,0,0,0,0,1.2097,1.2117,1.2112,1.2156,1.2173,1.219,1.2213,1.2207,1.2229,1.2226,1.2226,1.2231,1.227,1.2279,1.2258,1.2326,1.2305,1.231,1.2318,1.2325,1.233,1.2326,1.2237,0,0,0,0,0,1.2107,1.2133,1.2148,1.2186,1.2195,1.2203,1.2217,1.2217,1.2234,1.2241,1.2252,1.227,1.2294,1.231,1.2334,1.2379,1.2383,1.2399,1.2405,1.2409,1.2413,1.2436,1.2444,1.2367,1.2367,1.2367,0,0,1.2127,1.2141,1.2157,1.219,1.2204,1.223,1.2209,1.2238,1.2257,1.2246,1.2282,1.2291,1.231,1.2352,1.2371,1.2361,1.2435,1.2413,1.2417,1.2418,1.2441,1.2448,1.2454,1.2369,1.2369,1.2369,0,0,1.2177,1.219,1.2222,1.2236,1.2256,1.2261,1.2269,1.2288,1.2293,1.233,1.2322,1.2345,1.2387,1.2401,1.2414,1.2469,1.246,1.2476,1.2503,1.2526,1.2532,1.2537,1.2555,1.2562,1.2481,1.2481,1.2481,0,1.2199,1.2238,1.224,1.2269,1.2283,1.2275,1.2307,1.232,1.2347,1.2357,1.2346,1.2398,1.2411,1.2455,1.2468,1.248,1.2488,1.2473,1.2531,1.2536,1.2541,1.2558,1.2565,1.2482,1.2482,1.2482,1.2482,0,1.2264,1.2291,1.2315,1.2341,1.2358,1.2389,1.2394,1.2412,1.241,1.2416,1.2453,1.2468,1.2494,1.2505,1.2503,1.2549,1.2541,1.2531,1.2509,1.255,1.2566,1.2573,1.2485,1.2484,1.2484,1.2483,0,0,1.2325,1.2352,1.2361,1.2372,1.2394,1.2415,1.2445,1.2471,1.2485,1.2504,1.2528,1.2565,1.2555,1.2569,1.2569,1.259,1.263,1.2576,1.2576,1.2584,1.2679,1.2686,1.2694,1.2626,1.2627,1.2628,1.2677,0,1.2375,1.2428,1.243,1.2478,1.2503,1.2496,1.2522,1.2538,1.2545,1.2566,1.2574,1.2599,1.2585,1.2593,1.2613,1.2621,1.2649,1.2618,1.2647,1.2648,1.2641,1.2702,1.271,1.2755,1.2684,1.2685,1.2686,0,1.244,1.2461,1.2511,1.2529,1.2539,1.2563,1.2586,1.2607,1.2625,1.2629,1.2645,1.2642,1.2672,1.2651,1.2692,1.2671,1.2683,1.2689,1.2691,1.2692,1.2668,1.2704,1.277,1.2776,1.2696,1.2695,1.2694,0,1.2477,1.2519,1.2554,1.2564,1.2586,1.2602,1.2612,1.2629,1.2644,1.2664,1.2674,1.2698,1.271,1.2728,1.2732,1.2716,1.2772,1.2752,1.2775,1.2775,1.2786,1.2785,1.2853,1.2797,1.2797,1.2797,1.2797,0,1.2531,1.2562,1.2571,1.2592,1.2626,1.2629,1.2662,1.2671,1.2686,1.2708,1.2704,1.2726,1.273,1.2752,1.2755,1.2788,1.2794,1.2797,1.2797,1.2796,1.2795,1.2803,1.2799,1.2799,1.2798,1.2798,1.2797,0,1.2578,1.2586,1.2623,1.2641,1.2647,1.2671,1.2686,1.2706,1.2713,1.2741,1.2748,1.2758,1.2784,1.279,1.2821,1.2823,1.2861,1.2859,1.2855,1.2854,1.2876,1.2873,1.295,1.2959,1.2899,1.2899,1.29,0,1.2611,1.2634,1.2655,1.267,1.2681,1.2705,1.272,1.2724,1.274,1.2763,1.278,1.2805,1.2825,1.2867,1.2876,1.29,1.2897,1.2923,1.29,1.2899,1.2895,1.2893,1.2895,1.2926,1.2927,1.2927,1.2928,0,1.2668,1.2671,1.2693,1.2716,1.2735,1.2753,1.2771,1.2784,1.279,1.2808,1.2834,1.285,1.2881,1.2906,1.2929,1.2939,1.2934,1.2935,1.2941,1.2939,1.2935,1.2936,1.2864,1.2933,1.2932,1.2932,1.2931,1.2931,1.2708,1.2728,1.2745,1.277,1.2784,1.2801,1.2821,1.283,1.2852,1.2878,1.2879,1.2907,1.2924,1.2955,1.2967,1.2988,1.298,1.299,1.2992,1.2994,1.2995,1.2934,1.2993,1.2993,1.2993,1.2993,1.2993,0,1.2763,1.2774,1.2797,1.2822,1.2841,1.2836,1.2856,1.2872,1.2897,1.2914,1.2934,1.2964,1.2988,1.3,1.3024,1.3039,1.3037,1.3045,1.3042,1.3045,1.3002,1.2993,1.3046,1.3046,1.3046,1.3046,1.3045,1.3045,1.2794,1.2827,1.2832,1.2872,1.2883,1.291,1.2922,1.2937,1.295,1.2984,1.3004,1.3012,1.3027,1.3051,1.3073,1.3076,1.3084,1.3093,1.3094,1.3053,1.3048,1.3043,1.3034,1.3095,1.3095,1.3135,1.3136,1.3136]},{"header":{"parameterUnit":"m.s-1","parameterCategory":1,"la1":30.2991,"la2":30.254,"lo1":-89.0895,"lo2":-89.0444,"dy":0.0017,"dx":0.0017,"nx":28,"ny":28,"refTime":"2024-07-30T21:00:00:Z","depth":0,"parameterNumber":3,"parameterNumberName":"V-component_of_WINDS"},"data":[0,0,0,0,0,0,0,0,0,0,0,0,0,0,0,0,0,0,0,0,0,0,0,0,0,0,0,0,0,0,0,0,0,0,0,0,0,0,0,0,0,0,0,0,0,0,0,0,0,0,0,0,0,0,0,0,0,0,3.6564,3.6563,0,3.6496,3.6495,3.6494,3.6425,3.6424,3.6423,3.6422,3.6347,3.6346,3.6345,0,0,0,0,0,0,0,0,0,0,0,0,0,3.6631,3.663,3.6564,3.6563,3.6562,3.6496,3.6495,3.6494,3.6425,3.6424,3.6423,3.6422,3.6347,3.6346,3.6345,0,0,0,0,0,0,0,0,0,0,0,0,0,3.6586,3.6629,3.6564,3.652,3.6516,3.6496,3.6495,3.6494,3.6426,3.6424,3.6423,3.6422,3.6348,3.6346,3.6344,3.6361,0,0,3.6339,3.6338,0,0,0,0,0,0,0,0,3.6588,3.6583,3.6528,3.6523,3.6518,3.6468,3.649,3.6449,3.6426,3.646,3.6422,3.6421,3.6388,3.6383,3.6373,3.6357,3.6354,3.6339,3.6338,3.6337,3.6337,0,0,0,0,0,0,0,3.6592,3.6586,3.6537,3.6527,3.6521,3.6502,3.6495,3.6482,3.6432,3.6457,3.6451,3.6445,3.6385,3.6375,3.637,3.6353,3.6339,3.6337,3.6336,3.6336,3.6347,3.6349,0,0,0,0,0,0,3.6602,3.6589,3.6539,3.6535,3.6551,3.6502,3.6493,3.6485,3.6432,3.6423,3.6446,3.6442,3.6378,3.6373,3.6368,3.6383,3.6337,3.6335,3.6334,3.6346,3.6348,3.6349,0,0,0,0,0,0,3.6604,3.6598,3.6542,3.656,3.6552,3.6503,3.6494,3.6484,3.6474,3.6424,3.6414,3.6445,3.6377,3.637,3.6363,3.638,3.6335,3.6333,3.6344,3.6346,3.6348,3.6416,0,0,0,0,0,0,3.6606,3.6599,3.6606,3.6561,3.6551,3.6541,3.6495,3.6484,3.6472,3.6466,3.642,3.6411,3.6375,3.6366,3.6362,3.6377,3.6332,3.6343,3.6345,3.6348,3.6412,3.642,3.6426,0,0,0,0,0,3.6609,3.6627,3.6607,3.6601,3.6559,3.6542,3.6536,3.6495,3.6474,3.6479,3.6447,3.6413,3.6379,3.6366,3.636,3.6375,3.6341,3.6345,3.6347,3.6408,3.6418,3.6426,0,0,0,0,0,0,3.6673,3.662,3.6598,3.6602,3.6577,3.653,3.6536,3.6507,3.6486,3.6481,3.643,3.642,3.642,3.6396,3.6383,3.6388,3.6355,3.6357,3.6404,3.6412,3.642,3.6425,3.633,0,0,0,0,0,3.6688,3.668,3.6633,3.6642,3.6631,3.6586,3.6577,3.6548,3.6519,3.6508,3.6475,3.6447,3.643,3.642,3.6401,3.6408,3.6396,3.6415,3.6422,3.6429,3.6431,3.6432,3.644,3.6359,3.6359,3.6359,0,0,3.6719,3.6689,3.6686,3.6654,3.6631,3.6623,3.6577,3.657,3.6563,3.6506,3.6499,3.6474,3.6439,3.6439,3.6437,3.642,3.6451,3.6433,3.6438,3.6437,3.6436,3.6444,3.6451,3.6361,3.6361,3.636,0,0,3.677,3.6747,3.6751,3.673,3.6697,3.6667,3.6668,3.6626,3.6608,3.66,3.6557,3.6547,3.6518,3.6496,3.648,3.6523,3.6491,3.6518,3.6557,3.6559,3.6566,3.6571,3.6586,3.6592,3.6521,3.6521,3.6521,0,3.6811,3.6798,3.6757,3.6753,3.6739,3.669,3.6693,3.6674,3.6636,3.6627,3.6608,3.6572,3.6545,3.6539,3.655,3.6539,3.6538,3.6523,3.6568,3.6573,3.6578,3.6592,3.6597,3.6525,3.6524,3.6524,3.6523,0,3.6851,3.6843,3.685,3.6817,3.6804,3.6804,3.6761,3.6753,3.6725,3.6697,3.6689,3.6655,3.6629,3.6625,3.6597,3.6615,3.6605,3.6578,3.6544,3.659,3.6602,3.6607,3.653,3.6528,3.6527,3.6527,0,0,3.694,3.6885,3.6888,3.6873,3.6833,3.6825,3.6822,3.6798,3.6792,3.6767,3.6763,3.674,3.6715,3.6698,3.6667,3.6669,3.6705,3.6641,3.6639,3.6654,3.6722,3.6743,3.675,3.6683,3.6684,3.6685,3.6725,0,3.6985,3.6978,3.6941,3.6945,3.6936,3.6889,3.6886,3.686,3.6834,3.6821,3.6791,3.6776,3.6744,3.6733,3.6733,3.6701,3.6718,3.6697,3.6677,3.6677,3.6688,3.6757,3.6779,3.6819,3.673,3.6731,3.6731,0,3.7036,3.7016,3.702,3.6981,3.6975,3.6974,3.6949,3.6938,3.6908,3.6888,3.687,3.6836,3.6828,3.6797,3.6785,3.6772,3.6761,3.6744,3.6744,3.6741,3.6707,3.6755,3.683,3.6837,3.6738,3.6738,3.6737,0,3.7101,3.7075,3.7074,3.7062,3.7016,3.7016,3.6997,3.6965,3.6954,3.6931,3.6923,3.69,3.6887,3.6869,3.6828,3.6809,3.6821,3.6786,3.6804,3.6805,3.6808,3.6809,3.6883,3.6802,3.6801,3.6801,3.6801,0,3.7154,3.7158,3.7103,3.7103,3.7106,3.7062,3.7065,3.7041,3.7013,3.7006,3.6963,3.6956,3.6904,3.6891,3.6859,3.6854,3.6848,3.6831,3.6823,3.6835,3.6838,3.6828,3.6824,3.6803,3.6803,3.6802,3.6802,0,3.7228,3.7191,3.7187,3.7144,3.7133,3.7138,3.71,3.7097,3.7068,3.7059,3.7055,3.7009,3.6992,3.695,3.6921,3.6899,3.6903,3.6887,3.6914,3.6908,3.6928,3.6927,3.6999,3.7006,3.6921,3.6921,3.6922,0,3.7264,3.7266,3.7225,3.7218,3.7201,3.719,3.7178,3.7135,3.7124,3.709,3.7091,3.707,3.7052,3.7026,3.6989,3.6967,3.695,3.6977,3.6946,3.6959,3.695,3.6951,3.6951,3.6984,3.6985,3.6986,3.6986,0,3.7333,3.7315,3.7301,3.7281,3.7269,3.725,3.7229,3.7225,3.7176,3.7166,3.7149,3.7135,3.7107,3.7087,3.7059,3.7036,3.7003,3.6997,3.6999,3.7012,3.7028,3.702,3.6932,3.6995,3.6994,3.6994,3.6993,3.6993,3.7389,3.7389,3.736,3.7346,3.7326,3.7307,3.7302,3.7274,3.7259,3.7234,3.7209,3.7195,3.7163,3.7123,3.7103,3.7089,3.7072,3.7077,3.7077,3.7079,3.7085,3.703,3.7084,3.7084,3.7083,3.7083,3.7083,0,3.7456,3.7435,3.7422,3.7395,3.7384,3.7356,3.7331,3.7323,3.7311,3.7286,3.7269,3.7249,3.723,3.7192,3.7169,3.7166,3.715,3.7161,3.7161,3.7156,3.7101,3.7102,3.7174,3.7174,3.7174,3.7174,3.7174,3.7174,3.7489,3.7488,3.7467,3.7455,3.7433,3.742,3.7409,3.7391,3.7371,3.7351,3.7336,3.7312,3.7281,3.7255,3.7236,3.7225,3.7218,3.7235,3.7219,3.7168,3.716,3.7152,3.7151,3.7233,3.7234,3.7274,3.7275,3.7275]}]]